Theta_e
316 316 316 315 315 313 313 312 312 313 316 318 321 324 323 321 321 315 309 314 318 328 328 320 318 315 311 306 307 303 293 291 292 293 295 300 299 303 303 300 302 302 311 317 324
315 316 316 315 314 314 313 311 313 311 313 315 318 321 322 322 314 307 316 325 327 328 321 314 309 310 304 304 303 299 293 295 300 299 297 300 300 301 302 300 299 302 314 322 324
314 314 314 314 313 313 312 312 310 310 312 314 316 319 322 320 306 305 323 326 329 328 321 318 312 308 302 301 301 299 294 300 302 304 303 301 301 303 300 299 299 299 306 313 320
312 313 312 313 313 312 312 311 311 310 310 311 314 317 319 315 293 312 326 328 330 324 317 313 309 302 299 298 302 296 300 302 303 305 302 299 302 300 302 302 305 305 306 306 310
312 311 311 311 311 310 311 310 311 310 310 311 312 315 315 304 303 316 326 329 324 322 315 310 304 302 298 299 300 296 298 302 303 303 301 302 300 300 300 305 306 305 307 306 306
311 311 310 310 310 309 309 310 310 310 310 310 311 315 310 296 312 316 320 322 321 317 312 310 306 305 300 298 298 299 300 300 301 301 301 300 300 300 300 304 304 303 304 304 304
310 310 309 309 309 309 309 309 310 310 310 310 311 311 306 301 313 314 322 320 320 317 311 312 311 304 302 299 302 301 296 297 299 300 299 300 297 296 302 303 302 302 302 303 304
310 309 309 309 309 309 309 309 309 310 309 310 312 309 300 313 312 310 318 318 320 319 316 316 315 308 302 302 299 296 295 290 296 299 300 299 291 298 302 299 300 301 302 302 303
309 308 309 309 309 308 308 309 309 310 310 310 306 306 298 316 307 310 313 312 316 317 317 318 311 304 300 294 290 291 285 288 292 298 298 296 291 298 302 300 299 300 300 300 301
309 308 307 307 308 308 308 308 309 307 305 306 307 299 303 301 308 309 311 315 312 312 310 308 304 296 294 290 284 286 286 287 288 292 294 291 291 297 300 298 297 297 298 298 300
308 307 306 306 307 307 303 297 291 292 298 294 298 299 301 308 311 308 309 311 311 306 300 304 297 293 293 293 291 291 288 287 289 294 291 289 289 292 295 293 293 294 296 298 299
308 307 308 307 307 306 300 291 293 295 288 298 299 303 305 308 300 305 312 304 302 297 299 297 292 299 300 299 297 294 288 286 289 292 290 288 288 292 294 295 297 297 298 299 298
308 308 308 308 306 302 296 294 303 299 289 293 301 301 302 305 299 301 306 303 300 296 295 293 295 300 299 296 294 289 286 285 286 289 287 286 285 287 291 292 294 297 298 299 298
310 309 308 308 301 300 295 303 304 298 282 290 295 301 303 303 297 306 308 302 299 294 295 294 296 297 295 293 291 284 289 290 287 284 279 286 277 283 288 288 289 290 291 293 295
310 309 309 307 298 295 298 302 301 294 274 290 296 307 303 296 298 300 307 303 296 295 294 291 292 293 291 291 294 290 291 288 286 281 278 279 277 281 283 285 287 288 289 290 292
309 308 307 301 300 301 302 301 295 280 275 287 295 295 294 296 297 301 300 303 303 296 294 292 294 294 291 292 292 293 287 284 282 279 271 277 278 279 281 283 285 287 289 289 290
308 308 304 303 296 303 301 293 280 275 287 286 290 293 293 292 295 296 294 292 290 287 286 291 289 293 294 289 291 288 282 272 270 269 272 279 278 281 285 287 287 288 288 290 291
307 305 304 301 301 301 297 286 276 284 287 293 293 292 288 292 293 293 290 288 290 289 287 284 281 288 291 288 286 284 283 274 270 270 274 280 277 282 287 287 288 289 288 291 292
305 298 299 301 303 301 291 279 279 284 292 290 291 286 287 291 292 291 290 288 289 287 282 281 280 290 291 291 290 284 277 283 276 274 270 276 279 284 287 288 288 289 290 291 292
294 294 296 304 302 295 285 285 287 291 294 290 282 287 284 286 287 288 288 291 290 291 290 286 279 288 290 291 290 286 287 277 272 266 269 273 275 278 282 284 288 288 289 290 292
292 289 298 302 300 289 283 285 291 295 294 289 285 285 286 285 286 285 286 288 291 290 290 287 283 284 288 285 284 284 280 280 279 276 270 271 276 283 283 285 287 289 293 294 295
289 281 296 298 285 290 287 290 294 293 294 293 290 287 285 286 285 283 284 287 292 291 286 289 283 275 282 287 289 286 284 282 274 271 273 273 277 288 287 287 289 293 293 299 301
287 287 296 295 282 287 289 290 292 292 292 291 288 289 289 286 283 285 286 291 293 291 288 289 279 271 278 283 286 283 285 284 282 278 271 272 277 288 287 291 293 295 299 300 300
288 282 288 291 289 288 287 288 288 294 292 292 289 290 288 286 287 285 286 291 293 293 298 294 283 277 274 277 281 278 283 285 282 275 277 278 280 287 289 291 295 297 298 298 298
288 287 290 284 286 286 287 289 288 289 294 292 289 289 288 285 286 285 287 288 292 298 293 289 278 279 283 285 284 283 284 284 279 282 278 281 282 287 291 293 294 298 297 296 293
288 290 293 288 288 286 288 287 289 290 291 290 288 290 289 287 288 286 288 286 287 289 290 288 279 284 278 284 284 282 284 285 285 285 284 285 284 292 293 293 297 296 294 291 290
293 297 293 289 286 284 285 288 290 292 293 294 292 291 291 293 293 292 291 291 290 288 286 285 283 281 277 282 283 279 283 284 285 287 286 282 288 292 294 296 294 294 291 288 290
Wind_Speed
20 20 19 17 18 12 14 14 18 17 17 20 21 16 12 10 8 6 15 10 10 17 7 5 6 5 3 3 4 4 3 4 5 7 5 1 2 2 2 4 4 2 6 5 9
20 20 19 16 17 16 15 10 17 17 19 20 20 21 12 7 4 16 12 17 18 16 2 5 7 8 4 5 3 5 5 8 5 5 2 3 3 4 5 6 3 4 3 5 12
20 19 17 17 16 16 13 16 12 14 18 19 20 22 13 6 4 10 23 26 21 18 7 4 4 7 5 4 5 5 6 5 3 3 1 3 7 2 3 6 3 3 5 4 3
19 18 16 19 18 16 15 14 14 16 16 19 19 21 21 6 8 2 10 25 25 15 8 4 3 7 6 6 5 4 5 5 4 4 2 1 4 3 5 9 4 5 5 4 1
20 18 17 16 16 14 15 13 15 16 18 18 18 16 10 6 9 6 9 17 20 14 14 10 5 5 7 6 3 4 2 3 4 6 3 2 7 7 6 11 4 3 7 7 6
19 18 16 16 16 14 14 15 16 16 16 16 16 16 6 11 6 8 2 11 12 8 9 8 7 4 4 3 7 5 7 7 4 5 3 5 7 5 3 9 12 5 7 8 8
19 18 15 15 14 13 14 15 16 16 16 16 15 9 7 13 2 6 6 13 8 7 8 6 5 4 3 4 5 2 3 1 4 4 5 2 12 8 8 9 11 12 8 8 10
19 18 17 14 14 13 15 16 17 17 16 15 15 3 4 10 10 6 3 5 5 5 5 8 5 1 3 3 3 6 3 3 3 5 5 7 18 8 9 5 10 12 12 8 10
17 15 16 15 15 15 15 17 18 18 16 13 5 6 3 2 5 4 3 6 6 4 4 7 5 4 2 6 3 3 4 4 6 4 4 8 4 5 7 9 11 12 12 9 9
18 17 14 14 14 12 15 18 20 13 6 5 3 1 2 5 4 5 1 8 4 8 8 5 3 4 3 3 7 5 4 2 4 2 3 6 9 14 11 6 8 10 11 11 11
19 16 16 15 14 10 10 5 5 2 2 1 2 5 6 4 6 4 4 5 3 3 7 7 5 12 10 7 5 6 3 3 4 4 4 6 5 13 10 6 9 10 14 14 15
19 16 15 13 12 6 2 2 4 1 4 3 10 7 2 3 6 6 7 5 5 3 6 6 4 3 5 5 2 3 1 3 6 2 2 6 11 16 15 13 15 17 18 18 10
22 18 16 14 4 2 1 4 2 2 1 2 2 4 3 7 4 7 7 3 4 5 4 6 4 12 7 3 4 1 4 3 4 5 2 7 8 5 6 6 6 13 15 16 12
23 20 19 10 2 3 3 2 1 2 5 1 3 2 2 6 6 4 2 2 2 9 7 6 4 7 8 7 5 4 2 3 3 3 3 5 8 7 8 13 5 9 8 9 10
18 13 14 5 8 5 3 2 3 2 6 6 3 7 3 4 11 0 2 1 3 5 4 2 4 9 5 4 4 3 4 4 3 3 2 3 1 11 5 8 7 8 8 7 8
19 14 9 6 2 4 5 3 2 4 4 2 3 6 7 4 4 4 1 3 4 9 6 3 1 3 2 4 1 6 5 6 4 2 3 3 3 9 4 3 6 7 10 9 12
20 16 7 3 4 5 5 1 3 3 4 5 7 8 8 5 5 4 0 4 4 5 2 4 3 3 4 7 6 4 5 3 6 4 6 2 3 13 8 4 5 10 9 8 8
15 10 9 4 4 5 1 2 4 4 3 10 11 13 6 4 6 2 4 4 4 5 4 4 1 4 2 4 5 2 5 5 5 2 5 1 6 8 4 0 1 2 3 6 9
8 4 4 4 1 1 0 5 2 4 3 9 12 8 4 5 3 4 2 5 3 3 6 4 1 1 1 2 4 3 2 1 6 3 3 4 8 10 6 6 6 7 8 9 9
2 3 3 5 2 3 5 2 2 4 9 5 5 0 4 3 4 2 5 3 4 3 2 5 4 1 1 3 5 3 7 4 4 2 3 4 6 7 4 5 6 6 8 9 8
3 3 3 6 3 4 4 3 3 4 4 4 4 6 5 5 4 3 6 2 4 4 2 3 4 1 4 4 6 3 1 5 5 3 4 3 8 7 4 2 5 8 15 12 9
2 4 2 2 4 2 2 1 4 4 2 2 4 4 4 4 3 3 6 4 5 7 6 2 5 3 5 0 4 4 5 5 5 4 2 3 10 5 6 2 5 17 10 11 12
2 3 3 4 4 4 3 3 2 3 1 3 3 2 2 5 4 2 5 2 7 7 8 5 1 3 4 3 3 3 4 4 4 3 6 4 8 2 5 13 17 14 14 9 14
3 4 5 4 1 3 5 4 4 2 1 4 3 4 4 3 1 6 3 3 7 6 8 6 3 5 6 5 4 2 4 6 7 3 3 9 10 17 19 18 17 16 6 10 11
3 1 1 5 4 4 2 4 4 6 5 3 3 5 4 3 3 3 2 2 4 3 3 4 3 2 4 6 4 6 6 8 8 8 7 6 9 19 19 18 16 8 8 12 13
2 2 1 3 4 5 4 3 5 4 4 4 4 1 0 5 5 7 6 2 4 2 3 2 3 1 4 4 5 5 9 10 10 11 15 17 23 23 19 8 10 5 9 11 11
3 3 2 1 4 3 2 5 3 2 3 3 4 4 4 2 1 5 3 6 5 7 3 4 5 2 4 5 6 7 12 12 6 6 11 10 15 6 11 11 6 6 8 8 11
Wind_Direction
309 306 306 313 309 299 316 320 311 316 316 318 321 300 219 231 249 257 246 229 211 245 150 142 149 169 128 201 163 129 112 193 209 171 236 114 59 287 275 256 292 255 173 260 120
318 310 302 304 305 303 303 300 316 311 312 311 311 325 211 210 234 249 233 228 234 222 217 159 171 143 180 185 188 148 161 200 202 196 239 0 72 308 343 346 287 330 327 78 131
320 317 307 295 299 301 298 306 293 295 302 303 306 314 294 156 263 247 223 223 221 218 192 179 109 143 179 150 182 177 186 207 222 200 290 351 334 282 319 295 229 264 307 11 89
321 316 305 304 306 313 309 305 295 293 290 298 302 314 314 153 220 240 210 208 211 201 159 165 173 146 157 182 184 161 203 183 212 243 113 210 296 264 218 240 126 312 320 330 233
321 320 314 309 310 308 303 298 288 292 288 292 295 304 306 201 236 267 310 182 195 178 188 178 159 141 165 175 111 161 227 210 238 273 232 229 243 246 240 266 244 229 307 293 300
320 318 318 313 314 314 301 294 293 289 291 289 294 306 262 221 241 249 200 174 185 152 147 145 173 178 159 182 168 183 195 248 264 238 240 224 237 196 275 245 281 179 236 267 272
333 323 324 321 319 315 307 300 297 292 292 294 292 289 226 216 152 350 177 185 167 150 146 168 135 173 160 140 193 166 145 259 227 214 231 199 265 221 219 246 251 278 249 237 241
330 326 322 318 314 315 311 303 298 292 289 289 280 275 231 238 264 324 140 123 153 136 127 158 154 170 185 141 73 130 88 169 264 176 238 164 260 304 243 238 254 266 270 250 227
321 321 326 321 319 313 309 307 295 289 288 288 288 226 169 355 182 204 243 144 149 139 123 141 112 175 114 124 83 25 164 187 311 222 231 191 306 288 271 235 251 260 268 271 269
320 315 312 313 317 322 323 312 294 287 270 246 266 84 279 214 140 141 81 131 146 153 138 131 125 131 110 137 191 164 172 218 213 208 141 268 268 278 281 284 265 265 268 263 260
313 315 310 308 313 328 334 352 12 96 229 215 256 217 151 203 107 155 123 97 86 114 160 166 179 192 184 169 124 127 150 181 252 270 317 266 262 276 270 284 268 265 264 264 263
317 313 307 304 315 335 63 57 239 238 290 195 304 275 166 164 130 138 126 146 167 133 113 153 190 166 107 128 129 78 14 275 284 270 290 306 290 273 269 254 244 251 257 255 258
318 305 300 297 315 96 229 235 259 231 60 320 309 278 140 108 89 149 142 104 128 121 139 118 139 147 154 162 203 145 180 214 232 320 65 316 277 267 296 283 265 255 259 270 265
293 272 285 284 258 129 297 171 262 348 71 238 232 201 70 132 61 114 152 118 85 132 107 88 104 134 159 187 132 152 204 162 73 49 268 21 291 309 288 298 296 274 263 261 256
1 327 228 252 129 158 227 122 74 14 142 141 162 310 91 69 131 74 106 47 114 108 95 100 134 146 169 180 167 155 112 92 96 95 13 318 76 274 349 312 319 342 344 320 305
16 28 106 71 76 117 111 121 38 47 86 81 98 143 87 54 44 90 2 60 82 69 47 83 35 80 122 63 128 133 79 50 53 71 18 273 142 281 247 243 326 329 337 348 345
31 46 49 139 108 151 135 111 77 76 295 123 138 114 100 107 103 95 348 68 121 121 91 29 15 12 100 74 29 78 70 343 350 16 224 144 105 249 282 298 297 303 336 2 3
25 38 40 57 100 117 142 32 26 316 77 113 105 88 85 54 92 89 94 97 48 81 102 144 260 181 183 161 168 121 149 157 214 228 290 239 227 252 198 355 310 355 4 348 354
352 342 22 342 86 29 191 44 319 321 4 107 84 73 56 62 86 99 319 140 134 160 126 116 303 32 78 144 131 198 106 193 104 70 38 280 287 298 29 89 21 20 5 342 329
51 33 331 300 288 8 55 84 74 212 117 56 85 111 118 119 91 146 167 171 144 145 120 192 108 40 95 79 28 150 151 70 358 112 280 290 276 247 303 325 335 331 322 291 289
58 69 248 320 59 39 64 27 5 322 16 77 158 127 131 141 140 162 182 282 176 157 148 115 95 238 98 198 184 137 113 64 115 119 154 303 264 214 233 348 359 313 319 308 302
36 27 295 31 55 32 53 327 332 299 338 101 104 97 116 120 113 103 187 224 182 133 152 201 123 171 193 75 190 160 159 134 118 240 214 172 275 269 269 194 272 315 290 304 326
54 287 333 51 74 29 317 293 224 316 11 157 104 115 132 132 121 172 194 229 166 148 172 180 8 52 10 26 344 187 181 144 115 114 207 135 260 343 306 311 312 309 314 330 313
60 6 329 40 149 2 354 345 331 252 6 81 98 110 93 120 218 177 163 10 160 173 191 109 126 153 187 202 137 194 189 181 154 151 196 232 282 284 297 293 306 314 340 312 314
27 53 43 326 342 336 319 315 343 1 357 76 55 120 140 116 89 121 106 84 40 123 108 111 130 125 257 243 212 205 203 189 193 198 195 252 260 277 285 295 299 316 332 324 332
46 16 347 293 303 322 337 340 8 341 7 3 112 226 286 144 192 182 137 152 188 80 109 36 128 31 283 286 224 252 237 221 221 225 245 263 278 277 282 279 297 360 334 331 331
333 311 272 291 337 354 320 317 330 351 19 42 136 99 81 68 344 165 174 158 170 144 130 116 133 80 290 339 332 288 232 200 185 204 211 220 240 278 301 314 321 334 336 326 329